Location: Heisede
(52.2582°N, 9.8523°E)
Time: 20:28:06
(UTC+00:00)

Helios 1A Rocket - Pass Details

Date: 13 January 2026
Orbit: 425 x 435 km, 98.3° (Epoch: 16 February)

Event Time Altitude Azimuth Distance (km) Brightness Sun altitude
Rises 05:37:46 0° 186° (S) 2,446 6.3 -15.6°
Reaches altitude 10° 05:39:55 10° 196° (SSW) 1,581 5.2 -15.2°
Maximum altitude 05:43:00 32° 262° (W) 800 3.1 -14.8°
Enters shadow 05:43:36 30° 284° (WNW) 845 3.2 -14.7°
